Regional Weather Roundup
Issued by NWS Charleston, WV

Home | Current Version | Previous Version | Graphics & Text | Print | Product List | Glossary On
Versions: 1 2 3 4 5 6 7 8 9 10 11 12 13 14 15 16 17 18 19 20 21 22 23 24 25 26 27 28 29 30 31 32 33 34 35 36 37 38 39 40 41 42 43 44 45 46 47 48 49 50
000
ASUS41 KRLX 180410
RWRRLX
West Virginia Regional Weather Roundup
National Weather Service Charleston WV
1200 AM EDT SAT APR 18 2015

Note: "fair" indicates few or no clouds below 12,000 feet with no
significant weather and/or obstructions to visibility.

WVZ003-180500-
Northern Panhandle of West Virginia

CITY           SKY/WX    TMP DP  RH WIND       PRES   REMARKS
WHEELING       PTCLDY    61  46  57 CALM      30.05S
$$

WVZ009-180500-
Northwest West Virginia

CITY           SKY/WX    TMP DP  RH WIND       PRES   REMARKS
PARKERSBURG    MOCLDY    58  50  75 CALM      30.07R
$$

WVZ006-180500-
Western West Virginia

CITY           SKY/WX    TMP DP  RH WIND       PRES   REMARKS
HUNTINGTON     PTCLDY    64  51  62 N3        30.03S
$$

WVZ015-180500-
West Central West Virginia

CITY           SKY/WX    TMP DP  RH WIND       PRES   REMARKS
CHARLESTON     MOCLDY    62  55  77 CALM      30.03R
$$

WVZ022-031-180500-
North Central West Virginia

CITY           SKY/WX    TMP DP  RH WIND       PRES   REMARKS
CLARKSBURG     MOCLDY    57  55  93 N3        30.05R
MORGANTOWN     MOCLDY    59  53  80 CALM      30.06R
$$

WVZ025-035-042-045-180500-
Southern West Virginia

CITY           SKY/WX    TMP DP  RH WIND       PRES   REMARKS
BECKLEY        CLOUDY    58  51  78 CALM      30.08R
LOGAN            N/A     66  55  68 CALM      30.02S
BLUEFIELD      MOCLDY    64  49  57 CALM      30.09S
LEWISBURG      MOCLDY    59  52  76 CALM      30.07S
$$

WVZ047-180500-
Northern Mountains of West Virginia

CITY           SKY/WX    TMP DP  RH WIND       PRES   REMARKS
ELKINS         MOCLDY    48  47  96 CALM      30.08S FOG
$$

WVZ052-180500-
Eastern Panhandle of West Virginia

CITY           SKY/WX    TMP DP  RH WIND       PRES   REMARKS
MARTINSBURG    PTCLDY    59  51  75 CALM      30.02R
PETERSBURG     MOCLDY    54  49  84 CALM      30.05F
$$


USA.gov is the U.S. government's official web portal to all federal, state and local government web resources and services.